User: anonymous   Login
Location: Koussan�
(15.2012°N, 12.5548°W)
Time: 16:48:21
(UTC+00:00)
Language:

Delta 2 Rocket - Orbit

View from above orbital plane
View from above orbital plane
View from above satellite
View from above satellite

Ground track
Ground track

The orbit data is extracted from the following two-line orbital elements,

1 25359U 98035B   21016.87168309  .00000128  00000-0  61658-4 0  9992
2 25359  26.3817 246.4796 0513560  77.5497  17.7973 12.94470681 70249
Epoch (UTC): 16 January 2021 20:55:13
Eccentricity: 0.0513560
inclination: 26.3817°
perigee height: 890 km
apogee height: 1677 km
right ascension of ascending node: 246.4796°
argument of perigee: 77.5497°
revolutions per day: 12.94470681
mean anomaly at epoch: 17.7973°
orbit number at epoch: 7024

The dashed part of the orbit path shows where the satellite is in the earth's shadow,  

DLR